QPF
0.03 0.05 0.08 0.05 0.03 0.04 0.02 0.02 0.03 0.01 0.01 0.01 0.00 0.00 0.00 0.00 0.00 0.00 0.00 0.00 0.00 0.00 0.00 0.00 0.00 0.00 0.00 0.00 0.00 0.00 0.00 0.00 0.00 0.00 0.00 0.00 0.00 0.00 0.00 0.00 0.00 0.01 0.01 0.01
0.02 0.03 0.01 0.01 0.01 0.03 0.03 0.02 0.02 0.01 0.01 0.00 0.00 0.00 0.00 0.00 0.00 0.00 0.00 0.00 0.00 0.00 0.00 0.00 0.00 0.00 0.00 0.00 0.00 0.00 0.00 0.00 0.00 0.00 0.00 0.00 0.00 0.00 0.00 0.00 0.00 0.00 0.00 0.01
0.02 0.02 0.01 0.01 0.01 0.02 0.01 0.02 0.02 0.01 0.01 0.00 0.00 0.00 0.00 0.00 0.00 0.00 0.00 0.00 0.00 0.00 0.00 0.00 0.00 0.00 0.00 0.00 0.00 0.00 0.00 0.00 0.00 0.00 0.00 0.00 0.00 0.00 0.00 0.00 0.00 0.00 0.01 0.01
0.02 0.01 0.01 0.01 0.01 0.02 0.02 0.02 0.01 0.01 0.01 0.01 0.01 0.00 0.00 0.00 0.00 0.00 0.00 0.00 0.00 0.00 0.00 0.00 0.00 0.00 0.00 0.00 0.00 0.00 0.00 0.00 0.00 0.00 0.00 0.00 0.00 0.00 0.00 0.00 0.00 0.00 0.01 0.02
0.02 0.02 0.01 0.00 0.01 0.00 0.02 0.03 0.00 0.00 0.00 0.00 0.00 0.00 0.00 0.00 0.00 0.00 0.00 0.00 0.00 0.00 0.00 0.00 0.00 0.00 0.00 0.00 0.00 0.00 0.00 0.00 0.00 0.00 0.00 0.00 0.00 0.00 0.00 0.00 0.00 0.00 0.01 0.02
0.01 0.01 0.01 0.01 0.01 0.00 0.01 0.00 0.00 0.00 0.00 0.00 0.00 0.00 0.00 0.00 0.00 0.00 0.00 0.00 0.00 0.00 0.00 0.00 0.00 0.00 0.00 0.00 0.00 0.00 0.00 0.00 0.00 0.00 0.00 0.00 0.00 0.00 0.00 0.00 0.00 0.00 0.01 0.01
0.00 0.00 0.00 0.00 0.01 0.00 0.00 0.00 0.01 0.01 0.01 0.00 0.00 0.00 0.00 0.00 0.00 0.00 0.00 0.00 0.00 0.00 0.00 0.00 0.00 0.00 0.00 0.00 0.00 0.00 0.00 0.00 0.00 0.00 0.00 0.00 0.00 0.00 0.00 0.00 0.00 0.00 0.01 0.00
0.00 0.00 0.00 0.00 0.00 0.00 0.00 0.00 0.02 0.04 0.02 0.00 0.00 0.00 0.00 0.00 0.00 0.00 0.00 0.00 0.00 0.00 0.00 0.00 0.00 0.00 0.00 0.00 0.00 0.00 0.00 0.00 0.00 0.00 0.00 0.00 0.00 0.00 0.00 0.00 0.00 0.00 0.01 0.00
0.00 0.00 0.00 0.00 0.00 0.00 0.00 0.00 0.00 0.00 0.00 0.00 0.00 0.00 0.00 0.00 0.00 0.00 0.00 0.00 0.00 0.00 0.00 0.00 0.00 0.00 0.00 0.00 0.00 0.00 0.00 0.00 0.00 0.00 0.00 0.00 0.00 0.00 0.00 0.00 0.00 0.00 0.00 0.00
0.00 0.00 0.00 0.00 0.00 0.00 0.00 0.00 0.00 0.00 0.00 0.01 0.00 0.00 0.00 0.00 0.00 0.00 0.00 0.00 0.00 0.00 0.00 0.00 0.00 0.00 0.00 0.00 0.00 0.00 0.00 0.00 0.00 0.00 0.00 0.00 0.00 0.00 0.00 0.00 0.00 0.00 0.00 0.00
0.00 0.00 0.00 0.00 0.00 0.00 0.00 0.00 0.00 0.00 0.00 0.00 0.01 0.00 0.00 0.00 0.00 0.00 0.00 0.00 0.00 0.00 0.00 0.00 0.00 0.00 0.00 0.00 0.00 0.00 0.00 0.00 0.00 0.00 0.00 0.00 0.00 0.00 0.00 0.00 0.00 0.00 0.00 0.00
0.00 0.00 0.00 0.00 0.00 0.00 0.00 0.00 0.00 0.00 0.00 0.00 0.00 0.00 0.00 0.00 0.00 0.00 0.00 0.00 0.00 0.00 0.00 0.00 0.00 0.00 0.00 0.00 0.00 0.00 0.00 0.00 0.00 0.00 0.00 0.00 0.00 0.00 0.00 0.00 0.00 0.00 0.00 0.00
0.00 0.00 0.00 0.00 0.01 0.01 0.00 0.00 0.00 0.00 0.00 0.00 0.00 0.00 0.00 0.00 0.00 0.00 0.00 0.00 0.00 0.00 0.00 0.00 0.00 0.00 0.00 0.00 0.00 0.00 0.00 0.00 0.00 0.00 0.00 0.00 0.00 0.00 0.00 0.00 0.00 0.00 0.00 0.01
0.00 0.00 0.00 0.01 0.01 0.01 0.00 0.00 0.00 0.00 0.00 0.00 0.00 0.00 0.00 0.00 0.00 0.00 0.00 0.00 0.00 0.00 0.00 0.00 0.00 0.00 0.00 0.00 0.00 0.00 0.00 0.00 0.00 0.00 0.00 0.00 0.00 0.00 0.00 0.00 0.00 0.00 0.00 0.00
0.00 0.00 0.00 0.00 0.00 0.00 0.00 0.00 0.00 0.00 0.00 0.00 0.00 0.00 0.00 0.00 0.00 0.00 0.00 0.00 0.00 0.00 0.00 0.00 0.00 0.00 0.00 0.00 0.00 0.00 0.00 0.00 0.00 0.00 0.00 0.00 0.00 0.00 0.00 0.00 0.00 0.00 0.00 0.00
0.00 0.00 0.00 0.00 0.00 0.00 0.00 0.00 0.00 0.00 0.00 0.00 0.00 0.00 0.00 0.00 0.00 0.00 0.00 0.00 0.00 0.00 0.00 0.00 0.00 0.00 0.00 0.00 0.00 0.00 0.00 0.00 0.00 0.00 0.00 0.00 0.00 0.00 0.00 0.00 0.00 0.00 0.00 0.00
0.00 0.00 0.00 0.00 0.00 0.00 0.00 0.00 0.00 0.00 0.00 0.00 0.00 0.00 0.00 0.00 0.00 0.00 0.00 0.00 0.00 0.00 0.00 0.00 0.00 0.00 0.00 0.00 0.00 0.00 0.00 0.00 0.00 0.00 0.00 0.00 0.00 0.00 0.00 0.00 0.00 0.00 0.00 0.00
0.00 0.00 0.00 0.00 0.00 0.00 0.00 0.00 0.00 0.00 0.00 0.00 0.00 0.00 0.00 0.00 0.00 0.00 0.00 0.00 0.00 0.00 0.00 0.00 0.00 0.00 0.00 0.00 0.00 0.00 0.00 0.00 0.00 0.00 0.00 0.00 0.00 0.00 0.00 0.00 0.00 0.00 0.00 0.00
0.00 0.00 0.00 0.00 0.00 0.00 0.00 0.00 0.00 0.00 0.00 0.00 0.00 0.00 0.00 0.00 0.00 0.00 0.00 0.00 0.00 0.00 0.00 0.00 0.00 0.00 0.00 0.00 0.00 0.00 0.00 0.00 0.00 0.00 0.00 0.00 0.00 0.00 0.00 0.00 0.00 0.00 0.00 0.00
0.00 0.00 0.00 0.00 0.00 0.00 0.00 0.00 0.00 0.00 0.00 0.00 0.00 0.00 0.00 0.00 0.00 0.00 0.00 0.00 0.00 0.00 0.00 0.00 0.00 0.00 0.00 0.00 0.00 0.00 0.00 0.00 0.00 0.00 0.00 0.00 0.00 0.00 0.00 0.00 0.00 0.00 0.00 0.00
0.00 0.00 0.00 0.00 0.00 0.00 0.00 0.00 0.00 0.00 0.00 0.00 0.00 0.00 0.00 0.00 0.00 0.00 0.00 0.00 0.00 0.00 0.00 0.00 0.00 0.00 0.00 0.00 0.00 0.00 0.00 0.00 0.00 0.00 0.00 0.00 0.00 0.00 0.00 0.00 0.00 0.00 0.00 0.00
0.00 0.00 0.00 0.00 0.00 0.00 0.00 0.00 0.00 0.00 0.00 0.00 0.00 0.00 0.00 0.00 0.00 0.00 0.00 0.00 0.00 0.00 0.00 0.00 0.00 0.00 0.00 0.00 0.00 0.00 0.00 0.00 0.00 0.00 0.00 0.00 0.00 0.00 0.00 0.00 0.00 0.00 0.00 0.00
0.00 0.00 0.00 0.00 0.00 0.00 0.00 0.00 0.00 0.00 0.00 0.00 0.00 0.00 0.00 0.00 0.00 0.00 0.00 0.00 0.00 0.00 0.00 0.00 0.00 0.00 0.00 0.00 0.00 0.00 0.00 0.00 0.00 0.00 0.00 0.00 0.00 0.00 0.00 0.00 0.00 0.00 0.00 0.00
0.00 0.00 0.00 0.00 0.00 0.00 0.00 0.00 0.00 0.00 0.00 0.00 0.00 0.00 0.00 0.00 0.00 0.00 0.00 0.00 0.00 0.00 0.00 0.00 0.00 0.00 0.00 0.00 0.00 0.00 0.00 0.00 0.00 0.00 0.00 0.00 0.00 0.00 0.00 0.00 0.00 0.00 0.00 0.00
0.00 0.00 0.00 0.00 0.00 0.00 0.00 0.00 0.00 0.00 0.00 0.00 0.00 0.00 0.00 0.00 0.00 0.00 0.00 0.00 0.00 0.00 0.00 0.00 0.00 0.00 0.00 0.00 0.00 0.00 0.00 0.00 0.00 0.00 0.00 0.00 0.00 0.00 0.00 0.00 0.00 0.00 0.00 0.00
0.00 0.00 0.00 0.00 0.00 0.00 0.00 0.00 0.00 0.00 0.00 0.00 0.00 0.00 0.00 0.00 0.00 0.00 0.00 0.00 0.00 0.00 0.00 0.00 0.00 0.00 0.00 0.00 0.00 0.00 0.00 0.00 0.00 0.00 0.00 0.00 0.00 0.00 0.00 0.00 0.00 0.00 0.00 0.00
MSLP
1008.33 1008.98 1009.53 1009.96 1010.29 1010.51 1010.66 1010.73 1010.72 1010.63 1010.44 1010.15 1009.77 1009.31 1008.81 1008.31 1007.87 1007.54 1007.34 1007.29 1007.39 1007.62 1007.95 1008.33 1008.74 1009.15 1009.54 1009.92 1010.30 1010.68 1011.06 1011.44 1011.81 1012.16 1012.45 1012.67 1012.82 1012.88 1012.88 1012.83 1012.78 1012.74 1012.73 1012.77
1009.08 1009.64 1010.07 1010.41 1010.65 1010.83 1010.96 1011.04 1011.04 1010.96 1010.75 1010.41 1009.94 1009.36 1008.73 1008.11 1007.56 1007.15 1006.91 1006.85 1006.98 1007.24 1007.61 1008.02 1008.43 1008.84 1009.22 1009.59 1009.97 1010.37 1010.81 1011.27 1011.74 1012.19 1012.57 1012.87 1013.05 1013.12 1013.09 1013.00 1012.90 1012.81 1012.78 1012.82
1009.66 1010.10 1010.42 1010.66 1010.85 1011.01 1011.15 1011.25 1011.30 1011.23 1011.03 1010.65 1010.11 1009.43 1008.68 1007.94 1007.29 1006.80 1006.51 1006.44 1006.57 1006.86 1007.25 1007.68 1008.11 1008.51 1008.89 1009.26 1009.64 1010.07 1010.56 1011.09 1011.65 1012.18 1012.65 1013.00 1013.22 1013.29 1013.25 1013.13 1012.98 1012.86 1012.81 1012.84
1009.93 1010.24 1010.46 1010.63 1010.79 1010.96 1011.16 1011.34 1011.46 1011.46 1011.29 1010.92 1010.33 1009.58 1008.73 1007.87 1007.11 1006.53 1006.17 1006.07 1006.19 1006.48 1006.89 1007.34 1007.78 1008.19 1008.57 1008.94 1009.34 1009.79 1010.31 1010.90 1011.51 1012.11 1012.63 1013.03 1013.28 1013.37 1013.32 1013.18 1013.01 1012.87 1012.79 1012.82
1009.86 1010.04 1010.17 1010.30 1010.47 1010.71 1011.00 1011.31 1011.56 1011.67 1011.58 1011.23 1010.64 1009.83 1008.89 1007.92 1007.05 1006.36 1005.92 1005.75 1005.83 1006.12 1006.53 1006.99 1007.46 1007.89 1008.28 1008.67 1009.07 1009.53 1010.07 1010.68 1011.32 1011.95 1012.50 1012.93 1013.21 1013.31 1013.27 1013.13 1012.95 1012.80 1012.72 1012.74
1009.49 1009.56 1009.63 1009.75 1009.97 1010.31 1010.74 1011.21 1011.62 1011.88 1011.89 1011.61 1011.03 1010.19 1009.17 1008.10 1007.11 1006.30 1005.75 1005.50 1005.53 1005.79 1006.20 1006.68 1007.16 1007.62 1008.04 1008.44 1008.85 1009.31 1009.84 1010.44 1011.07 1011.69 1012.24 1012.68 1012.96 1013.09 1013.07 1012.95 1012.79 1012.65 1012.58 1012.61
1008.98 1008.96 1008.99 1009.13 1009.43 1009.88 1010.47 1011.11 1011.69 1012.10 1012.23 1012.03 1011.48 1010.62 1009.54 1008.38 1007.27 1006.34 1005.68 1005.34 1005.30 1005.52 1005.92 1006.41 1006.92 1007.41 1007.86 1008.28 1008.69 1009.13 1009.63 1010.18 1010.76 1011.34 1011.86 1012.28 1012.57 1012.71 1012.72 1012.64 1012.53 1012.43 1012.39 1012.43
1008.50 1008.42 1008.44 1008.61 1008.98 1009.54 1010.26 1011.04 1011.76 1012.30 1012.54 1012.42 1011.90 1011.03 1009.91 1008.68 1007.47 1006.44 1005.68 1005.25 1005.14 1005.31 1005.69 1006.19 1006.73 1007.26 1007.73 1008.16 1008.57 1008.98 1009.42 1009.90 1010.41 1010.92 1011.38 1011.77 1012.05 1012.20 1012.25 1012.23 1012.17 1012.13 1012.14 1012.21
1008.20 1008.10 1008.12 1008.32 1008.73 1009.37 1010.16 1011.02 1011.83 1012.45 1012.75 1012.68 1012.19 1011.33 1010.19 1008.91 1007.65 1006.54 1005.70 1005.20 1005.02 1005.16 1005.52 1006.03 1006.58 1007.13 1007.63 1008.07 1008.47 1008.84 1009.22 1009.62 1010.04 1010.46 1010.86 1011.20 1011.46 1011.63 1011.73 1011.76 1011.78 1011.80 1011.87 1011.99
1008.19 1008.09 1008.12 1008.33 1008.75 1009.38 1010.17 1011.04 1011.84 1012.46 1012.77 1012.71 1012.24 1011.39 1010.26 1008.98 1007.70 1006.57 1005.69 1005.14 1004.92 1005.02 1005.37 1005.86 1006.43 1006.99 1007.51 1007.96 1008.34 1008.68 1009.01 1009.33 1009.67 1010.01 1010.33 1010.63 1010.87 1011.06 1011.19 1011.29 1011.37 1011.47 1011.59 1011.76
1008.45 1008.38 1008.42 1008.61 1008.98 1009.54 1010.25 1011.01 1011.72 1012.25 1012.51 1012.42 1011.95 1011.13 1010.04 1008.81 1007.57 1006.46 1005.59 1005.02 1004.79 1004.86 1005.17 1005.66 1006.22 1006.78 1007.30 1007.75 1008.13 1008.45 1008.74 1009.02 1009.29 1009.57 1009.85 1010.11 1010.34 1010.54 1010.71 1010.86 1011.00 1011.15 1011.33 1011.53
1008.89 1008.87 1008.90 1009.05 1009.33 1009.76 1010.29 1010.87 1011.40 1011.79 1011.94 1011.78 1011.31 1010.53 1009.51 1008.36 1007.21 1006.18 1005.36 1004.81 1004.57 1004.62 1004.90 1005.35 1005.88 1006.43 1006.94 1007.40 1007.78 1008.11 1008.39 1008.65 1008.91 1009.16 1009.42 1009.66 1009.90 1010.11 1010.31 1010.49 1010.68 1010.87 1011.08 1011.30
1009.36 1009.38 1009.42 1009.50 1009.66 1009.91 1010.23 1010.57 1010.88 1011.06 1011.07 1010.84 1010.35 1009.62 1008.70 1007.68 1006.66 1005.74 1005.01 1004.51 1004.27 1004.29 1004.52 1004.91 1005.38 1005.89 1006.39 1006.84 1007.24 1007.59 1007.90 1008.19 1008.47 1008.75 1009.02 1009.28 1009.53 1009.76 1009.98 1010.19 1010.39 1010.59 1010.81 1011.04
1009.71 1009.78 1009.81 1009.83 1009.86 1009.92 1010.01 1010.10 1010.16 1010.13 1009.98 1009.67 1009.17 1008.51 1007.72 1006.85 1005.99 1005.21 1004.57 1004.13 1003.89 1003.87 1004.03 1004.33 1004.72 1005.16 1005.62 1006.06 1006.48 1006.88 1007.25 1007.61 1007.96 1008.29 1008.62 1008.92 1009.21 1009.46 1009.69 1009.90 1010.11 1010.31 1010.52 1010.73
1009.85 1009.96 1009.99 1009.95 1009.87 1009.76 1009.63 1009.48 1009.31 1009.09 1008.80 1008.42 1007.93 1007.35 1006.69 1005.99 1005.30 1004.66 1004.13 1003.73 1003.48 1003.39 1003.46 1003.64 1003.92 1004.27 1004.67 1005.09 1005.53 1005.98 1006.43 1006.88 1007.33 1007.76 1008.16 1008.53 1008.86 1009.15 1009.39 1009.61 1009.80 1009.98 1010.16 1010.35
1009.77 1009.90 1009.93 1009.86 1009.68 1009.43 1009.13 1008.80 1008.44 1008.07 1007.67 1007.24 1006.78 1006.29 1005.76 1005.22 1004.69 1004.18 1003.74 1003.37 1003.10 1002.93 1002.87 1002.92 1003.06 1003.29 1003.61 1003.99 1004.43 1004.93 1005.46 1006.02 1006.57 1007.11 1007.62 1008.07 1008.45 1008.78 1009.04 1009.25 1009.42 1009.58 1009.73 1009.89
1009.53 1009.68 1009.70 1009.59 1009.36 1009.02 1008.61 1008.14 1007.66 1007.17 1006.71 1006.27 1005.85 1005.44 1005.04 1004.64 1004.25 1003.86 1003.48 1003.13 1002.82 1002.55 1002.36 1002.25 1002.23 1002.33 1002.54 1002.86 1003.29 1003.81 1004.41 1005.05 1005.71 1006.36 1006.95 1007.49 1007.94 1008.30 1008.58 1008.80 1008.97 1009.11 1009.24 1009.38
1009.26 1009.39 1009.40 1009.27 1009.00 1008.61 1008.12 1007.59 1007.03 1006.50 1006.01 1005.57 1005.20 1004.87 1004.58 1004.30 1004.02 1003.72 1003.39 1003.04 1002.67 1002.31 1001.98 1001.71 1001.54 1001.48 1001.57 1001.81 1002.20 1002.72 1003.35 1004.05 1004.79 1005.51 1006.19 1006.79 1007.30 1007.72 1008.03 1008.27 1008.45 1008.59 1008.72 1008.86
1009.10 1009.17 1009.13 1008.97 1008.68 1008.26 1007.75 1007.18 1006.60 1006.05 1005.57 1005.16 1004.83 1004.58 1004.37 1004.19 1003.99 1003.75 1003.45 1003.09 1002.67 1002.22 1001.77 1001.37 1001.04 1000.85 1000.81 1000.95 1001.27 1001.75 1002.37 1003.09 1003.86 1004.63 1005.36 1006.02 1006.58 1007.04 1007.40 1007.68 1007.89 1008.06 1008.22 1008.37
1009.12 1009.09 1008.98 1008.77 1008.44 1008.01 1007.49 1006.92 1006.34 1005.80 1005.34 1004.96 1004.68 1004.48 1004.34 1004.22 1004.08 1003.88 1003.61 1003.24 1002.79 1002.28 1001.74 1001.23 1000.78 1000.47 1000.31 1000.34 1000.57 1000.98 1001.55 1002.24 1003.00 1003.77 1004.53 1005.22 1005.82 1006.33 1006.74 1007.07 1007.35 1007.57 1007.78 1007.97
1009.34 1009.18 1008.97 1008.68 1008.30 1007.84 1007.32 1006.75 1006.19 1005.68 1005.23 1004.89 1004.64 1004.47 1004.37 1004.29 1004.20 1004.04 1003.79 1003.43 1002.98 1002.43 1001.85 1001.26 1000.74 1000.32 1000.06 999.99 1000.11 1000.43 1000.92 1001.54 1002.25 1002.99 1003.73 1004.43 1005.07 1005.62 1006.10 1006.50 1006.85 1007.16 1007.44 1007.69
1009.69 1009.37 1009.04 1008.66 1008.22 1007.73 1007.19 1006.64 1006.09 1005.60 1005.18 1004.85 1004.62 1004.47 1004.39 1004.34 1004.27 1004.14 1003.92 1003.59 1003.15 1002.61 1002.02 1001.40 1000.83 1000.36 1000.02 999.85 999.87 1000.08 1000.47 1000.99 1001.62 1002.30 1003.01 1003.70 1004.35 1004.96 1005.50 1005.99 1006.43 1006.84 1007.20 1007.54
1010.06 1009.59 1009.13 1008.65 1008.15 1007.62 1007.08 1006.53 1006.00 1005.52 1005.11 1004.79 1004.57 1004.42 1004.34 1004.30 1004.24 1004.13 1003.94 1003.64 1003.24 1002.74 1002.17 1001.57 1000.99 1000.48 1000.09 999.84 999.77 999.87 1000.14 1000.56 1001.09 1001.70 1002.36 1003.03 1003.70 1004.35 1004.96 1005.54 1006.08 1006.59 1007.06 1007.48
1010.33 1009.74 1009.18 1008.63 1008.07 1007.52 1006.97 1006.43 1005.92 1005.45 1005.05 1004.72 1004.49 1004.33 1004.23 1004.17 1004.11 1004.01 1003.84 1003.59 1003.23 1002.78 1002.25 1001.68 1001.12 1000.60 1000.17 999.86 999.70 999.70 999.87 1000.18 1000.62 1001.15 1001.76 1002.41 1003.09 1003.77 1004.46 1005.12 1005.77 1006.38 1006.94 1007.45
1010.43 1009.78 1009.16 1008.57 1008.00 1007.45 1006.91 1006.38 1005.89 1005.43 1005.03 1004.69 1004.43 1004.24 1004.11 1004.02 1003.93 1003.83 1003.67 1003.43 1003.11 1002.70 1002.21 1001.68 1001.13 1000.62 1000.16 999.81 999.58 999.50 999.57 999.78 1000.13 1000.59 1001.16 1001.79 1002.48 1003.20 1003.95 1004.70 1005.43 1006.14 1006.79 1007.38
1010.35 1009.70 1009.09 1008.52 1007.98 1007.46 1006.96 1006.47 1006.00 1005.55 1005.15 1004.79 1004.49 1004.25 1004.07 1003.92 1003.79 1003.65 1003.47 1003.23 1002.92 1002.53 1002.06 1001.55 1001.01 1000.49 1000.01 999.62 999.33 999.17 999.16 999.30 999.57 999.98 1000.50 1001.13 1001.83 1002.59 1003.39 1004.21 1005.02 1005.80 1006.53 1007.19
Thickness
5739 5732 5728 5737 5746 5748 5747 5743 5738 5749 5765 5761 5758 5762 5772 5780 5779 5777 5777 5777 5777 5776 5780 5779 5775 5771 5766 5762 5759 5754 5749 5746 5741 5735 5730 5726 5721 5719 5716 5712 5706 5702 5697 5693
5728 5729 5745 5754 5755 5750 5746 5740 5740 5752 5765 5761 5759 5765 5778 5784 5782 5782 5781 5781 5780 5780 5779 5776 5773 5769 5765 5761 5757 5754 5749 5745 5740 5734 5731 5726 5722 5719 5715 5711 5706 5701 5697 5692
5728 5741 5755 5753 5749 5743 5743 5740 5740 5743 5757 5764 5758 5757 5773 5786 5790 5788 5787 5786 5786 5782 5778 5774 5771 5767 5763 5760 5757 5754 5749 5745 5740 5735 5731 5726 5721 5717 5713 5708 5704 5701 5697 5692
5736 5750 5752 5747 5743 5744 5736 5752 5753 5749 5742 5740 5752 5736 5764 5779 5779 5781 5782 5782 5782 5783 5781 5776 5771 5767 5763 5761 5758 5755 5749 5745 5740 5735 5728 5722 5717 5712 5710 5707 5704 5702 5698 5693
5732 5744 5745 5743 5749 5754 5747 5758 5757 5753 5746 5743 5753 5744 5759 5776 5769 5773 5779 5780 5781 5782 5780 5776 5772 5768 5766 5762 5757 5754 5749 5744 5739 5734 5728 5722 5718 5714 5712 5708 5705 5702 5698 5695
5743 5757 5757 5756 5762 5763 5761 5758 5757 5755 5746 5729 5750 5746 5748 5766 5769 5773 5778 5781 5781 5781 5780 5776 5773 5769 5764 5761 5756 5752 5746 5741 5738 5733 5729 5724 5719 5714 5711 5707 5703 5700 5698 5695
5739 5750 5762 5765 5753 5757 5755 5740 5725 5722 5721 5726 5759 5751 5753 5773 5780 5778 5777 5779 5781 5780 5777 5773 5768 5764 5760 5756 5753 5749 5744 5739 5737 5733 5729 5726 5721 5717 5712 5708 5704 5700 5698 5694
5734 5734 5755 5761 5755 5751 5752 5746 5720 5702 5707 5728 5753 5750 5762 5781 5783 5782 5780 5779 5779 5778 5776 5772 5768 5763 5759 5755 5752 5748 5744 5740 5737 5733 5731 5728 5724 5719 5715 5711 5707 5703 5699 5696
5742 5740 5764 5768 5769 5762 5750 5749 5756 5737 5732 5728 5746 5761 5770 5778 5775 5775 5775 5774 5773 5774 5773 5771 5767 5764 5759 5755 5752 5749 5745 5741 5738 5735 5732 5729 5726 5721 5716 5713 5709 5705 5702 5698
5757 5741 5754 5764 5765 5764 5760 5757 5747 5733 5715 5710 5728 5743 5746 5756 5762 5767 5769 5769 5771 5773 5772 5770 5767 5764 5761 5757 5754 5751 5747 5743 5740 5737 5734 5730 5726 5722 5718 5713 5710 5706 5703 5699
5764 5747 5746 5752 5747 5748 5751 5748 5745 5738 5734 5714 5706 5726 5765 5763 5765 5765 5768 5771 5772 5771 5769 5768 5766 5765 5762 5759 5755 5751 5748 5744 5741 5738 5735 5731 5726 5723 5719 5714 5710 5707 5703 5700
5763 5752 5740 5749 5766 5769 5760 5753 5746 5725 5723 5726 5715 5729 5775 5771 5770 5769 5769 5772 5774 5773 5771 5769 5766 5763 5760 5758 5755 5751 5749 5745 5742 5739 5735 5731 5727 5723 5719 5715 5712 5709 5705 5702
5755 5745 5729 5730 5740 5752 5749 5752 5750 5742 5730 5721 5712 5730 5775 5773 5769 5770 5769 5770 5772 5771 5769 5767 5764 5761 5758 5756 5754 5753 5750 5747 5743 5739 5735 5731 5727 5723 5720 5716 5713 5710 5706 5703
5753 5743 5733 5720 5729 5744 5741 5746 5748 5738 5721 5719 5725 5736 5755 5760 5761 5765 5767 5770 5770 5769 5768 5765 5761 5760 5758 5757 5755 5753 5750 5748 5744 5739 5734 5731 5728 5724 5721 5718 5714 5710 5707 5703
5753 5738 5742 5747 5753 5752 5748 5746 5746 5740 5736 5726 5732 5738 5748 5756 5759 5764 5767 5768 5767 5767 5766 5764 5760 5759 5757 5756 5754 5753 5750 5748 5744 5738 5733 5731 5729 5726 5722 5717 5713 5710 5706 5703
5750 5737 5738 5738 5748 5749 5745 5749 5748 5745 5744 5740 5739 5740 5757 5763 5764 5762 5763 5763 5762 5763 5764 5764 5763 5761 5758 5756 5754 5752 5749 5747 5744 5739 5734 5732 5729 5726 5721 5717 5713 5709 5706 5702
5738 5733 5724 5722 5737 5738 5731 5748 5749 5748 5749 5743 5732 5740 5754 5753 5754 5755 5758 5759 5759 5761 5762 5763 5763 5762 5761 5760 5758 5753 5750 5747 5743 5739 5735 5732 5728 5724 5720 5717 5712 5708 5704 5701
5733 5727 5722 5718 5719 5704 5739 5764 5759 5748 5747 5749 5746 5747 5749 5750 5754 5758 5758 5757 5757 5760 5761 5762 5763 5764 5764 5764 5761 5757 5752 5747 5742 5738 5735 5731 5727 5722 5719 5715 5711 5708 5705 5702
5745 5728 5715 5709 5703 5714 5738 5752 5752 5741 5735 5744 5741 5742 5745 5750 5750 5748 5754 5756 5755 5758 5760 5762 5764 5765 5765 5764 5762 5757 5751 5746 5741 5737 5734 5731 5727 5722 5717 5713 5710 5707 5704 5701
5743 5734 5715 5707 5696 5695 5722 5744 5753 5739 5718 5735 5736 5732 5733 5735 5722 5728 5744 5749 5752 5755 5757 5759 5761 5763 5761 5761 5760 5754 5748 5744 5740 5737 5735 5732 5728 5722 5717 5713 5710 5708 5704 5701
5719 5715 5706 5700 5695 5708 5727 5738 5738 5706 5701 5722 5724 5722 5721 5717 5718 5727 5737 5741 5744 5748 5751 5753 5754 5753 5755 5757 5755 5749 5745 5742 5741 5738 5734 5730 5726 5721 5717 5713 5710 5706 5703 5699
5708 5703 5702 5701 5691 5696 5719 5720 5706 5701 5713 5713 5711 5710 5710 5711 5717 5721 5725 5729 5734 5738 5741 5744 5744 5745 5748 5751 5748 5743 5741 5742 5740 5735 5729 5726 5723 5719 5716 5710 5706 5704 5700 5696
5706 5705 5700 5698 5696 5708 5711 5704 5704 5705 5700 5700 5698 5699 5699 5700 5703 5708 5712 5717 5722 5727 5731 5734 5734 5735 5739 5741 5741 5736 5737 5737 5734 5729 5724 5721 5718 5715 5712 5706 5702 5699 5696 5692
5696 5702 5692 5688 5695 5700 5700 5696 5693 5691 5687 5688 5687 5687 5687 5687 5691 5695 5700 5705 5710 5715 5719 5722 5724 5724 5727 5731 5733 5732 5732 5731 5726 5721 5718 5715 5712 5709 5706 5702 5698 5694 5690 5687
5674 5675 5671 5670 5677 5680 5681 5678 5675 5674 5674 5673 5673 5673 5673 5675 5678 5681 5686 5692 5696 5702 5707 5710 5712 5714 5717 5721 5723 5725 5725 5723 5719 5716 5713 5710 5707 5704 5699 5694 5689 5687 5682 5681
5663 5659 5653 5654 5660 5657 5658 5661 5661 5657 5656 5656 5656 5657 5660 5661 5663 5667 5672 5677 5682 5687 5693 5697 5700 5703 5708 5712 5714 5717 5718 5716 5713 5710 5708 5705 5701 5697 5692 5685 5677 5674 5674 5673